Date String (YYYY-MM-DD hh:mm:ss) UTC,Instrument flags,absolute air pressure of the measurement (hPa),sample flow rate (lpm),inlet stack bypass flow (lpm),air temperature of the measurement (°C),ambient temperature measured by the external sensor (°C),aerosol sample conditioner tube jacket temperature (°C),OPC LED temperature (°C),internal box temperature (°C),relative humidity of the measurement (%),span deviation,mass concentration of particles derived from Lorenz-Mie calculation of OPC scattering (μg/m³),mass concentration of particles derived from Lorenz-Mie calculation of OPC scattering (μg/m³),mass concentration of particles derived from Lorenz-Mie calculation of OPC scattering (μg/m³)
DateTimeUTC,F1_M11,P_M11,Q1_M11,Q2_M11,T1_M11,T2_M11,T3_M11,T4_M11,T5_M11,U1_M11,ZSPAN_M11,X2_M11,X0_M11,X1_M11
2023-11-14 09:00:00,SystemResetWarning,0830.8,5.00,000.00,027.1,026.1,000.0,035.5,028.5,4.8,0000.0,0003.84,0013.96,0003.14
2023-11-14 09:01:00,SystemResetWarning,0830.8,5.00,000.00,027.1,026.1,000.0,035.5,028.5,4.7,0000.0,0003.75,0013.65,0003.09
2023-11-14 09:02:00,SystemResetWarning,0830.8,5.00,000.00,027.1,026.1,000.0,035.5,028.5,4.7,0000.0,0003.66,0012.72,0002.95
2023-11-14 09:03:00,SystemResetWarning,0830.8,4.99,000.00,027.1,026.1,000.0,035.5,028.6,4.8,0000.0,0003.54,0012.39,0002.78
2023-11-14 09:04:00,SystemResetWarning,0830.7,4.99,000.00,027.2,026.1,000.0,035.5,028.6,5.2,0000.0,0003.40,0012.15,0002.59
2023-11-14 09:05:00,SystemResetWarning,0830.8,4.99,000.00,027.2,026.1,000.0,035.5,028.5,5.3,0000.0,0003.31,0011.99,0002.50
2023-11-14 09:06:00,SystemResetWarning,0830.8,5.00,000.00,027.2,026.1,000.0,035.5,028.5,6.3,0000.0,0003.20,0011.27,0002.39
2023-11-14 09:07:00,SystemResetWarning,0830.8,5.00,000.00,027.1,026.1,000.0,035.5,028.5,7.3,0000.0,0003.05,0010.00,0002.23
2023-11-14 09:08:00,SystemResetWarning,0830.7,5.01,000.00,027.1,026.1,000.0,035.5,028.5,6.7,0000.0,0002.87,0009.75,0002.09
2023-11-14 09:09:00,SystemResetWarning,0830.6,5.01,000.00,027.1,026.1,000.0,035.5,028.5,5.7,0000.0,0002.78,0009.70,0002.00
2023-11-14 09:10:00,SystemResetWarning,0830.6,4.99,000.00,027.1,026.1,000.0,035.5,028.4,5.2,0000.0,0002.56,0008.10,0001.85
2023-11-14 09:11:00,SystemResetWarning,0830.7,5.00,000.00,027.1,026.1,000.0,035.5,028.5,6.2,0000.0,0002.45,0007.30,0001.77
2023-11-14 09:12:00,SystemResetWarning,0830.7,5.00,000.00,027.1,026.1,000.0,035.5,028.5,6.5,0000.0,0002.48,0007.05,0001.81
2023-11-14 09:13:00,SystemResetWarning,0830.6,5.00,000.00,027.1,026.1,000.0,035.5,028.5,6.2,0000.0,0002.71,0007.89,0001.98
2023-11-14 09:14:00,SystemResetWarning,0830.5,5.00,000.00,027.1,026.1,000.0,035.5,028.5,5.4,0000.0,0002.88,0008.14,0002.12
2023-11-14 09:15:00,SystemResetWarning,0830.7,5.00,000.00,027.1,026.1,000.0,035.5,028.5,5.4,0000.0,0002.96,0008.08,0002.18
2023-11-14 09:16:00,SystemResetWarning,0830.7,5.00,000.00,027.1,026.1,000.0,035.5,028.5,6.3,0000.0,0003.02,0008.21,0002.21
2023-11-14 09:17:00,SystemResetWarning,0830.6,5.00,000.00,027.1,026.1,000.0,035.5,028.5,6.9,0000.0,0003.12,0008.35,0002.30
2023-11-14 09:18:00,SystemResetWarning,0830.6,5.00,000.00,027.1,026.1,000.0,035.5,028.5,6.4,0000.0,0003.23,0008.42,0002.43
2023-11-14 09:19:00,SystemResetWarning,0830.6,5.00,000.00,027.1,026.1,000.0,035.5,028.5,6.2,0000.0,0003.31,0008.99,0002.53
2023-11-14 09:20:00,SystemResetWarning,0830.5,4.99,000.00,027.0,026.0,000.0,035.5,028.5,6.5,0000.0,0003.33,0009.08,0002.56
2023-11-14 09:21:00,SystemResetWarning,0830.6,4.99,000.00,027.0,026.0,000.0,035.4,028.5,6.3,0000.0,0003.32,0009.18,0002.57
2023-11-14 09:22:00,SystemResetWarning,0830.6,5.00,000.00,027.0,026.0,000.0,035.4,028.5,6.3,0000.0,0003.36,0009.68,0002.66
2023-11-14 09:23:00,SystemResetWarning,0830.7,5.00,000.00,027.0,026.0,000.0,035.4,028.5,6.4,0000.0,0003.38,0010.01,0002.67
2023-11-14 09:24:00,SystemResetWarning,0830.7,5.00,000.00,027.0,026.0,000.0,035.4,028.4,6.7,0000.0,0003.30,0010.76,0002.54
2023-11-14 09:25:00,SystemResetWarning,0830.6,5.00,000.00,027.0,026.0,000.0,035.4,028.4,7.0,0000.0,0003.30,0010.90,0002.50
2023-11-14 09:26:00,SystemResetWarning,0830.7,5.00,000.00,027.0,026.0,000.0,035.4,028.4,6.1,0000.0,0003.34,0011.04,0002.56
2023-11-14 09:27:00,SystemResetWarning,0830.8,5.00,000.00,027.0,026.0,000.0,035.4,028.4,6.7,0000.0,0003.39,0011.70,0002.61
2023-11-14 09:28:00,SystemResetWarning,0830.8,5.00,000.00,027.0,026.0,000.0,035.4,028.4,7.1,0000.0,0003.42,0012.53,0002.62
2023-11-14 09:29:00,SystemResetWarning,0830.7,5.00,000.00,027.0,026.0,000.0,035.4,028.4,7.7,0000.0,0003.43,0012.91,0002.61
2023-11-14 09:30:00,SystemResetWarning,0830.6,5.01,000.00,027.0,026.0,000.0,035.4,028.4,6.9,0000.0,0003.50,0012.60,0002.69
2023-11-14 09:31:00,SystemResetWarning,0830.6,5.00,000.00,027.0,026.0,000.0,035.4,028.4,5.5,0000.0,0003.70,0013.17,0002.89
2023-11-14 09:32:00,SystemResetWarning,0830.6,5.00,000.00,027.0,026.0,000.0,035.4,028.4,5.8,0000.0,0003.77,0013.30,0002.99
2023-11-14 09:33:00,SystemResetWarning,0830.6,5.00,000.00,027.0,026.0,000.0,035.4,028.4,6.1,0000.0,0003.85,0013.15,0003.06
2023-11-14 09:34:00,SystemResetWarning,0830.6,5.01,000.00,027.0,026.0,000.0,035.4,028.4,6.8,0000.0,0003.90,0013.50,0003.11
2023-11-14 09:35:00,SystemResetWarning,0830.5,5.00,000.00,027.0,025.9,000.0,035.4,028.4,6.5,0000.0,0004.11,0013.28,0003.29
2023-11-14 09:36:00,SystemResetWarning,0830.4,5.00,000.00,027.0,026.0,000.0,035.4,028.4,5.7,0000.0,0004.20,0013.66,0003.37
2023-11-14 09:37:00,SystemResetWarning,0830.6,5.00,000.00,027.0,026.0,000.0,035.4,028.4,5.4,0000.0,0004.15,0013.59,0003.34
2023-11-14 09:38:00,SystemResetWarning,0830.7,5.00,000.00,027.0,026.0,000.0,035.4,028.4,6.0,0000.0,0004.15,0013.28,0003.35
2023-11-14 09:39:00,SystemResetWarning,0830.6,5.00,000.00,027.0,026.0,000.0,035.4,028.4,6.5,0000.0,0004.19,0012.99,0003.40
2023-11-14 09:40:00,SystemResetWarning,0830.6,4.99,000.00,027.0,026.0,000.0,035.4,028.4,5.7,0000.0,0004.28,0013.66,0003.47
2023-11-14 09:41:00,SystemResetWarning,0830.6,4.99,000.00,027.0,026.0,000.0,035.4,028.4,5.4,0000.0,0004.32,0013.20,0003.48
2023-11-14 09:42:00,SystemResetWarning,0830.6,5.00,000.00,027.0,026.0,000.0,035.4,028.4,5.4,0000.0,0004.19,0012.51,0003.40
2023-11-14 09:43:00,SystemResetWarning,0830.7,4.99,000.00,027.0,026.0,000.0,035.4,028.4,5.0,0000.0,0004.15,0013.77,0003.38
2023-11-14 09:44:00,SystemResetWarning,0830.7,4.99,000.00,027.0,026.0,000.0,035.4,028.4,5.2,0000.0,0004.18,0014.26,0003.39
2023-11-14 09:45:00,SystemResetWarning,0830.8,5.00,000.00,027.0,026.0,000.0,035.4,028.4,5.4,0000.0,0004.18,0014.14,0003.37
2023-11-14 09:46:00,SystemResetWarning,0830.8,4.99,000.00,027.0,026.0,000.0,035.4,028.4,6.1,0000.0,0003.99,0013.25,0003.22
2023-11-14 09:47:00,SystemResetWarning,0830.7,5.01,000.00,027.0,026.0,000.0,035.4,028.4,6.5,0000.0,0003.86,0012.45,0003.12
2023-11-14 09:48:00,SystemResetWarning,0830.8,5.00,000.00,027.0,025.9,000.0,035.3,028.4,7.3,0000.0,0003.91,0012.46,0003.13
2023-11-14 09:49:00,SystemResetWarning,0830.8,5.00,000.00,027.0,025.9,000.0,035.3,028.4,7.9,0000.0,0003.88,0012.06,0003.09
2023-11-14 09:50:00,SystemResetWarning,0830.7,5.01,000.00,027.0,025.9,000.0,035.4,028.4,7.7,0000.0,0003.80,0011.50,0003.00
2023-11-14 09:51:00,SystemResetWarning,0830.7,5.00,000.00,026.9,025.9,000.0,035.3,028.4,7.4,0000.0,0003.66,0011.00,0002.85
2023-11-14 09:52:00,SystemResetWarning,0830.8,5.00,000.00,026.9,025.9,000.0,035.3,028.3,7.4,0000.0,0003.56,0011.00,0002.79
2023-11-14 09:53:00,SystemResetWarning,0830.8,5.00,000.00,026.9,025.9,000.0,035.3,028.3,7.4,0000.0,0003.58,0010.95,0002.90
2023-11-14 09:54:00,SystemResetWarning,0830.9,5.00,000.00,026.9,025.9,000.0,035.3,028.3,6.8,0000.0,0003.73,0010.87,0003.13
2023-11-14 09:55:00,SystemResetWarning,0830.7,5.00,000.00,026.9,025.9,000.0,035.3,028.3,6.1,0000.0,0004.00,0011.57,0003.33
2023-11-14 09:56:00,SystemResetWarning,0830.6,5.00,000.00,026.9,025.9,000.0,035.3,028.3,5.8,0000.0,0004.17,0012.42,0003.47
2023-11-14 09:57:00,SystemResetWarning,0830.6,5.00,000.00,026.9,025.9,000.0,035.3,028.3,5.7,0000.0,0004.38,0013.28,0003.63
2023-11-14 09:58:00,SystemResetWarning,0830.6,4.99,000.00,026.9,025.8,000.0,035.3,028.3,4.9,0000.0,0004.57,0014.46,0003.77
2023-11-14 09:59:00,SystemResetWarning,0830.7,5.00,000.00,026.9,025.8,000.0,035.3,028.3,5.2,0000.0,0004.72,0015.26,0003.89
